| time (UTC) | temp F | wind direction | speed knots | gust knots | rain 1hr in | rain 24hr in | rain mn in | humidity % | barometer mb |
| 20260504174517 | 70 | 246 | 2.6 | 11.3 | 0.00 | 0.00 | 0.00 | 33 | 1012.2 |
| 20260504173016 | 69 | 263 | 3.5 | 9.6 | 0.00 | 0.00 | 0.00 | 33 | 1012.4 |
| 20260504171534 | 69 | 269 | 3.5 | 12.2 | 0.00 | 0.00 | 0.00 | 33 | 1012.6 |
| 20260504081517 | 42 | 298 | 0.0 | 1.7 | 0.00 | 0.00 | 0.00 | 69 | 1014.5 |
| 20260504044516 | 35 | 315 | 0.0 | 0.0 | 0.00 | 0.00 | 0.00 | 85 | 1014.7 |
| 20260504043033 | 35 | 315 | 0.0 | 0.0 | 0.00 | 0.00 | 0.00 | 84 | 1014.7 |
| 20260504041534 | 36 | 315 | 0.0 | 0.0 | 0.00 | 0.00 | 0.00 | 83 | 1014.6 |
| 20260504040033 | 36 | 315 | 0.0 | 0.0 | 0.00 | 0.00 | 0.00 | 83 | 1014.5 |
| 20260504033041 | 37 | 315 | 0.0 | 0.0 | 0.00 | 0.00 | 0.00 | 81 | 1014.4 |
| 20260504031525 | 37 | 315 | 0.0 | 0.0 | 0.00 | 0.00 | 0.00 | 80 | 1014.4 |
| 20260504030044 | 38 | 315 | 0.0 | 0.0 | 0.00 | 0.00 | 0.00 | 77 | 1014.4 |
| 20260504024526 | 39 | 315 | 0.0 | 0.0 | 0.00 | 0.01 | 0.00 | 76 | 1014.4 |
| 20260504023025 | 39 | 315 | 0.0 | 0.0 | 0.00 | 0.01 | 0.00 | 74 | 1014.3 |
| 20260504021525 | 40 | 315 | 0.0 | 0.0 | 0.00 | 0.01 | 0.00 | 72 | 1014.3 |
| 20260504020026 | 41 | 315 | 0.0 | 0.0 | 0.00 | 0.01 | 0.00 | 70 | 1014.2 |
| 20260504014525 | 42 | 315 | 0.0 | 0.0 | 0.00 | 0.01 | 0.00 | 67 | 1014.2 |
| 20260504013026 | 42 | 315 | 0.0 | 0.0 | 0.00 | 0.01 | 0.00 | 66 | 1014.1 |
| 20260504011541 | 42 | 315 | 0.0 | 0.0 | 0.00 | 0.01 | 0.00 | 66 | 1013.9 |
| 20260504003043 | 46 | 315 | 0.0 | 0.0 | 0.00 | 0.01 | 0.00 | 52 | 1013.2 |
| 20260504001527 | 48 | 315 | 0.0 | 0.0 | 0.00 | 0.01 | 0.00 | 47 | 1013.0 |
| 20260504000026 | 50 | 315 | 0.0 | 0.0 | 0.00 | 0.01 | 0.00 | 42 | 1012.8 |
| 20260503233027 | 54 | 331 | 0.0 | 2.6 | 0.00 | 0.01 | 0.00 | 36 | 1012.7 |
| 20260503231526 | 54 | 332 | 0.9 | 7.0 | 0.00 | 0.01 | 0.00 | 34 | 1012.6 |
| 20260503224525 | 55 | 328 | 1.7 | 7.8 | 0.00 | 0.01 | 0.00 | 34 | 1012.5 |
| 20260503223028 | 55 | 327 | 2.6 | 7.8 | 0.00 | 0.01 | 0.00 | 34 | 1012.5 |
| 20260503221525 | 56 | 330 | 1.7 | 6.1 | 0.00 | 0.01 | 0.00 | 36 | 1012.5 |
| 20260503220026 | 56 | 332 | 1.7 | 7.8 | 0.00 | 0.01 | 0.00 | 36 | 1012.6 |
| 20260503214540 | 56 | 325 | 1.7 | 7.8 | 0.00 | 0.01 | 0.00 | 35 | 1012.5 |
| 20260503213025 | 56 | 330 | 2.6 | 8.7 | 0.00 | 0.01 | 0.00 | 36 | 1012.5 |
| 20260503210025 | 56 | 343 | 2.6 | 7.8 | 0.00 | 0.01 | 0.00 | 36 | 1012.4 |
| 20260503203025 | 56 | 332 | 2.6 | 10.4 | 0.00 | 0.01 | 0.00 | 36 | 1012.4 |
| 20260503201543 | 55 | 339 | 2.6 | 9.6 | 0.00 | 0.01 | 0.00 | 37 | 1012.3 |
| 20260503200025 | 56 | 337 | 1.7 | 9.6 | 0.00 | 0.01 | 0.00 | 36 | 1012.3 |
| 20260503194526 | 55 | 321 | 3.5 | 13.9 | 0.00 | 0.01 | 0.00 | 36 | 1012.2 |
| 20260503193041 | 54 | 330 | 3.5 | 9.6 | 0.00 | 0.01 | 0.00 | 37 | 1012.3 |
| 20260503191526 | 56 | 326 | 3.5 | 12.2 | 0.00 | 0.01 | 0.00 | 36 | 1012.2 |
| 20260503190028 | 56 | 335 | 2.6 | 10.4 | 0.00 | 0.01 | 0.00 | 38 | 1012.2 |
| 20260503184524 | 55 | 313 | 3.5 | 14.8 | 0.00 | 0.01 | 0.00 | 37 | 1012.3 |
| 20260503181525 | 56 | 325 | 2.6 | 10.4 | 0.00 | 0.02 | 0.00 | 38 | 1012.1 |
| 20260503180024 | 55 | 353 | 2.6 | 12.2 | 0.00 | 0.02 | 0.00 | 41 | 1012.4 |